Hourly Data Report for August 29, 2013

All times are specified in Local Standard Time (LST). Add 1 hour to adjust for Daylight Saving Time where and when it is observed.

VICTORIA INTL A
BRITISH COLUMBIA

48°38'50.000" N
123°25'33.000" W
19.50 m
1018621
71799
YYJ

Download Data

Hourly Data (August 2013)
Hourly Data Report for August 29, 2013
Temp Definition
°C
Dew Point Temp Definition
°C
Rel Hum Definition
%
Wind Dir Definition
10's deg

Wind Spd Definition
km/h
Visibility Definition
km
Stn Press Definition
kPa
Hmdx Definition


Wind Chill Definition


Weather Definition


TIME
00:00 Legend Double Dagger 17.4 16.8 96 25 5 24.1 101.03     Rain Showers
01:00 Legend Double Dagger 16.8 16.5 98 23 6 16.1 100.96     Cloudy
02:00 Legend Double Dagger 15.6 15.5 99 12 5 1.0 100.96     Fog
03:00 Legend Double Dagger 15.5 15.4 99 12 4 1.6 100.93     Fog
04:00 Legend Double Dagger 14.2 13.9 98 11 8 1.6 100.94     Fog
05:00 Legend Double Dagger 14.1 13.8 98 11 7 1.6 100.93     Rain,Fog
06:00 Legend Double Dagger 14.0 13.9 99 8 5 1.6 100.92     Rain,Fog
07:00 Legend Double Dagger 15.1 14.8 98 2 2 3.2 100.91     Rain Showers,Fog
08:00 Legend Double Dagger 16.1 15.8 98 5 2 3.2 100.90     Rain,Fog
09:00 Legend Double Dagger 16.9 16.3 96 6 8 3.2 100.87     Rain,Fog
10:00 Legend Double Dagger 17.0 16.4 96 9 5 3.2 100.92     Rain,Fog
11:00 Legend Double Dagger 17.1 16.6 97 9 7 3.2 100.93     Rain,Fog
12:00 Legend Double Dagger 17.3 16.8 97 8 11 3.2 100.89     Rain,Fog
13:00 Legend Double Dagger 17.7 16.6 93 18 13 16.1 101.01     Rain
14:00 Legend Double Dagger 17.2 15.6 90 14 21 32.2 100.98     LegendNANA
15:00 Legend Double Dagger 17.1 16.1 94 14 18 24.1 101.00     Rain
16:00 Legend Double Dagger 16.8 15.7 93 13 9 32.2 101.03     Rain
17:00 Legend Double Dagger 17.8 16.5 92 6 7 48.3 101.00     LegendNANA
18:00 Legend Double Dagger 18.4 16.6 89 9 3 48.3 100.97     LegendNANA
19:00 Legend Double Dagger 17.7 16.7 94 22 1 48.3 101.00     Rain
20:00 Legend Double Dagger 15.6 15.1 97 9 8 48.3 100.99     LegendNANA
21:00 Legend Double Dagger 16.0 15.7 98 13 6 48.3 100.99     LegendNANA
22:00 Legend Double Dagger 17.0 16.7 98 21 8 24.1 101.15     Heavy Rain
23:00 Legend Double Dagger 17.1 13.5 79 25 24 48.3 101.21     Thunderstorms

Notes on Data Quality.

Legend

  • E = Estimated
  • M = Missing
  • NA = Not Available
  • ‡ = Partner data that is not subject to review by the National Climate Archives
Date modified: